weather.gov     
National Weather Service

Terminal Aerodrome Forecast
NWS Homepage
This page is being discontinued on March 12, 2014.
The same data is available at this site. Please update your bookmarks.
Thank you, and we apologize for the inconvenience.
Please send an email to SR-SRH.Webmaster@noaa.gov with any concerns.


Current Version
Previous Version:    01  02  03  04  05  06  07  08  09  10  11  12  13  14  15  16  17  18  19  20  21  22  23  24  25  26  27  28  29  30  
   31  
[Printable]
636
FTUS41 KOKX 310500
TAFSWF
TAF
KSWF 310537Z 3106/0112 VRB03KT P6SM SCT050
      TEMPO 3106/3110 BKN050
     FM311500 07005KT P6SM BKN040
     FM312100 09006KT P6SM BKN035
     FM010200 07005KT P6SM -RA SCT025 BKN035
     FM010600 06005KT 5SM -RA BR BKN025
      AMD NOT SKED=


U.S. Dept. of Commerce
NOAA National Weather Service
1325 East West Highway
Silver Spring, MD 20910
E-mail: w-nws.webmaster@noaa.gov
Page last modified: May 16, 2007
NATIONAL WEATHER SERVICE: for Safety, for Work, for Fun - FOR LIFE